Погода в Митрофанове

Россия / Пензенская область     53°07′19″N   43°04′41″E
темп.,
°C
ветер,
м/с
пор.,
м/с
влажн.,
%
обл.,
%
осадки,
мм/ч
давл.,
гПа
погр.,
м
16 апреля, пт
пт1600:00+12ююв3364100 0.0 101541
03:00+11ссз2274100 0.0 101613
06:00+10вюв3561100 0.0 101687
09:00+15юв465258 0.0 1017331
12:00+19юв4638100 0.0 10171151
15:00+20юв463394 0.0 10171949
18:00+18в364431 0.0 1017161
21:00+13юв37637 0.1 1018127
17 апреля, сб
сб1700:00+12в3372100 0.1 101935
03:00+10в337414 0.2 101929
06:00+9в487869 0.0 1019149
09:00+15вюв61153100 0.0 1019507
12:00+19вюв61040100 0.0 10181966
15:00+20юв71136100 0.0 10172652
18:00+10зюз7982100 1.0 1020448
21:00+9всв2384100 2.2 1021260
18 апреля, вс
вс1800:00+9ю1389100 0.7 1021220
03:00+7ююз2289100 0.7 102140
06:00+7ююз128898 0.2 102040
09:00+10зсз117015 0.2 1020553
12:00+14зсз12509 0.1 10191545
15:00+15зюз0244100 0.1 10192038
18:00+12св226681 0.4 1020171
21:00+9в4587100 0.8 1022217
19 апреля, пн
пн1900:00+9всв2386100 0.1 1022147
03:00+8св3589100 0.1 1022175
06:00+7св3691100 0.0 1022187
09:00+11в577461 0.0 1022560
12:00+11в8867100 0.0 1022929
15:00+11в7973100 0.1 10221149
18:00+9в6126899 0.0 10231015
21:00+9в61371100 0.0 1022937
20 апреля, вт
вт2000:00+8в81473100 0.0 1022779
03:00+7вюв81577100 0.0 1021733
06:00+6вюв91784100 0.0 1020750
09:00+7вюв111979100 0.0 1018784
12:00+8вюв111973100 0.0 1017919
15:00+8вюв111977100 2.8 1015999
18:00+6вюв122290100 8.4 1014921
21:00+7вюв132489100 12.7 1013973